owner,sensor,date,latitude,longitude,vertical_datum,sea_water_temperature,qcFlag 
NERRS,ioos:station:NOAA.NERRS:gndbcwq:1,2013-12-01T02:00:00Z,30.3836,-88.4364,0.0,13.6,2 
NERRS,ioos:station:NOAA.NERRS:gndbcwq:1,2013-12-01T11:00:00Z,30.3836,-88.4364,0.0,10.9,2 
NERRS,ioos:station:NOAA.NERRS:gndbcwq:1,2013-12-01T12:00:00Z,30.3836,-88.4364,0.0,10.7,2 
NERRS,ioos:station:NOAA.NERRS:gndbcwq:1,2013-12-01T16:00:00Z,30.3836,-88.4364,0.0,13.0,2 
NERRS,ioos:station:NOAA.NERRS:gndbcwq:1,2013-12-01T21:00:00Z,30.3836,-88.4364,0.0,14.2,2 
NERRS,ioos:station:NOAA.NERRS:gndbcwq:1,2013-12-01T22:00:00Z,30.3836,-88.4364,0.0,14.2,2 
NERRS,ioos:station:NOAA.NERRS:gndbcwq:1,2013-12-02T06:00:00Z,30.3836,-88.4364,0.0,13.3,2 
NERRS,ioos:station:NOAA.NERRS:gndbcwq:1,2013-12-02T09:00:00Z,30.3836,-88.4364,0.0,13.7,2 
NERRS,ioos:station:NOAA.NERRS:gndbcwq:1,2013-12-02T12:00:00Z,30.3836,-88.4364,0.0,13.7,2 
NERRS,ioos:station:NOAA.NERRS:gndbcwq:1,2013-12-02T13:00:00Z,30.3836,-88.4364,0.0,13.5,2 
NERRS,ioos:station:NOAA.NERRS:gndbcwq:1,2013-12-02T16:00:00Z,30.3836,-88.4364,0.0,14.1,2 
NERRS,ioos:station:NOAA.NERRS:gndbcwq:1,2013-12-02T18:00:00Z,30.3836,-88.4364,0.0,14.7,2 
NERRS,ioos:station:NOAA.NERRS:gndbcwq:1,2013-12-02T21:00:00Z,30.3836,-88.4364,0.0,15.5,2 
NERRS,ioos:station:NOAA.NERRS:gndbcwq:1,2013-12-02T23:00:00Z,30.3836,-88.4364,0.0,15.2,2 
NERRS,ioos:station:NOAA.NERRS:gndbcwq:1,2013-12-03T07:00:00Z,30.3836,-88.4364,0.0,14.8,2 
NERRS,ioos:station:NOAA.NERRS:gndbcwq:1,2013-12-03T08:00:00Z,30.3836,-88.4364,0.0,14.9,2 
NERRS,ioos:station:NOAA.NERRS:gndbcwq:1,2013-12-03T09:00:00Z,30.3836,-88.4364,0.0,15.0,2 
NERRS,ioos:station:NOAA.NERRS:gndbcwq:1,2013-12-03T20:00:00Z,30.3836,-88.4364,0.0,17.0,2 
NERRS,ioos:station:NOAA.NERRS:gndbcwq:1,2013-12-03T21:00:00Z,30.3836,-88.4364,0.0,17.1,2 
NERRS,ioos:station:NOAA.NERRS:gndbcwq:1,2013-12-04T01:00:00Z,30.3836,-88.4364,0.0,16.9,2 
NERRS,ioos:station:NOAA.NERRS:gndbcwq:1,2013-12-04T02:00:00Z,30.3836,-88.4364,0.0,16.7,2 
NERRS,ioos:station:NOAA.NERRS:gndbcwq:1,2013-12-04T03:00:00Z,30.3836,-88.4364,0.0,16.3,2 
NERRS,ioos:station:NOAA.NERRS:gndbcwq:1,2013-12-04T05:00:00Z,30.3836,-88.4364,0.0,15.9,2 
NERRS,ioos:station:NOAA.NERRS:gndbcwq:1,2013-12-04T08:00:00Z,30.3836,-88.4364,0.0,16.4,2 
NERRS,ioos:station:NOAA.NERRS:gndbcwq:1,2013-12-04T10:00:00Z,30.3836,-88.4364,0.0,16.5,2 
NERRS,ioos:station:NOAA.NERRS:gndbcwq:1,2013-12-04T15:45:00Z,30.3836,-88.4364,0.0,17.1,2 
NERRS,ioos:station:NOAA.NERRS:gndbcwq:1,2013-12-04T17:00:00Z,30.3836,-88.4364,0.0,18.7,2 
NERRS,ioos:station:NOAA.NERRS:gndbcwq:1,2013-12-04T18:00:00Z,30.3836,-88.4364,0.0,18.2,2 
NERRS,ioos:station:NOAA.NERRS:gndbcwq:1,2013-12-04T19:00:00Z,30.3836,-88.4364,0.0,18.4,2 
NERRS,ioos:station:NOAA.NERRS:gndbcwq:1,2013-12-04T20:00:00Z,30.3836,-88.4364,0.0,18.5,2 
NERRS,ioos:station:NOAA.NERRS:gndbcwq:1,2013-12-04T21:00:00Z,30.3836,-88.4364,0.0,18.8,2 
NERRS,ioos:station:NOAA.NERRS:gndbcwq:1,2013-12-04T22:00:00Z,30.3836,-88.4364,0.0,19.0,2 
NERRS,ioos:station:NOAA.NERRS:gndbcwq:1,2013-12-04T23:00:00Z,30.3836,-88.4364,0.0,18.9,2 
NERRS,ioos:station:NOAA.NERRS:gndbcwq:1,2013-12-05T00:00:00Z,30.3836,-88.4364,0.0,18.8,2 
NERRS,ioos:station:NOAA.NERRS:gndbcwq:1,2013-12-05T01:00:00Z,30.3836,-88.4364,0.0,18.4,2 
NERRS,ioos:station:NOAA.NERRS:gndbcwq:1,2013-12-05T02:00:00Z,30.3836,-88.4364,0.0,18.3,2 
NERRS,ioos:station:NOAA.NERRS:gndbcwq:1,2013-12-05T03:00:00Z,30.3836,-88.4364,0.0,18.3,2 
NERRS,ioos:station:NOAA.NERRS:gndbcwq:1,2013-12-05T04:00:00Z,30.3836,-88.4364,0.0,17.8,2 
NERRS,ioos:station:NOAA.NERRS:gndbcwq:1,2013-12-05T05:00:00Z,30.3836,-88.4364,0.0,17.5,2 
NERRS,ioos:station:NOAA.NERRS:gndbcwq:1,2013-12-05T07:00:00Z,30.3836,-88.4364,0.0,17.7,2 
NERRS,ioos:station:NOAA.NERRS:gndbcwq:1,2013-12-05T08:00:00Z,30.3836,-88.4364,0.0,18.2,2 
NERRS,ioos:station:NOAA.NERRS:gndbcwq:1,2013-12-05T09:00:00Z,30.3836,-88.4364,0.0,18.3,2 
NERRS,ioos:station:NOAA.NERRS:gndbcwq:1,2013-12-05T10:00:00Z,30.3836,-88.4364,0.0,18.5,2 
NERRS,ioos:station:NOAA.NERRS:gndbcwq:1,2013-12-05T11:00:00Z,30.3836,-88.4364,0.0,18.7,2 
NERRS,ioos:station:NOAA.NERRS:gndbcwq:1,2013-12-05T12:00:00Z,30.3836,-88.4364,0.0,18.9,2 
NERRS,ioos:station:NOAA.NERRS:gndbcwq:1,2013-12-05T13:00:00Z,30.3836,-88.4364,0.0,19.0,2 
NERRS,ioos:station:NOAA.NERRS:gndbcwq:1,2013-12-05T14:00:00Z,30.3836,-88.4364,0.0,19.1,2 
NERRS,ioos:station:NOAA.NERRS:gndbcwq:1,2013-12-05T15:00:00Z,30.3836,-88.4364,0.0,19.4,2 
NERRS,ioos:station:NOAA.NERRS:gndbcwq:1,2013-12-05T16:00:00Z,30.3836,-88.4364,0.0,19.6,2 
NERRS,ioos:station:NOAA.NERRS:gndbcwq:1,2013-12-05T17:00:00Z,30.3836,-88.4364,0.0,20.2,2 
NERRS,ioos:station:NOAA.NERRS:gndbcwq:1,2013-12-05T18:00:00Z,30.3836,-88.4364,0.0,21.0,2 
NERRS,ioos:station:NOAA.NERRS:gndbcwq:1,2013-12-05T19:00:00Z,30.3836,-88.4364,0.0,20.7,2 
NERRS,ioos:station:NOAA.NERRS:gndbcwq:1,2013-12-05T20:00:00Z,30.3836,-88.4364,0.0,21.0,2 
NERRS,ioos:station:NOAA.NERRS:gndbcwq:1,2013-12-05T21:00:00Z,30.3836,-88.4364,0.0,20.7,2 
NERRS,ioos:station:NOAA.NERRS:gndbcwq:1,2013-12-05T22:00:00Z,30.3836,-88.4364,0.0,20.6,2 
NERRS,ioos:station:NOAA.NERRS:gndbcwq:1,2013-12-05T23:00:00Z,30.3836,-88.4364,0.0,20.7,2 
NERRS,ioos:station:NOAA.NERRS:gndbcwq:1,2013-12-06T00:00:00Z,30.3836,-88.4364,0.0,20.6,2 
NERRS,ioos:station:NOAA.NERRS:gndbcwq:1,2013-12-06T01:00:00Z,30.3836,-88.4364,0.0,20.4,2 
NERRS,ioos:station:NOAA.NERRS:gndbcwq:1,2013-12-06T02:00:00Z,30.3836,-88.4364,0.0,20.3,2 
NERRS,ioos:station:NOAA.NERRS:gndbcwq:1,2013-12-06T03:00:00Z,30.3836,-88.4364,0.0,20.0,2 
NERRS,ioos:station:NOAA.NERRS:gndbcwq:1,2013-12-06T04:00:00Z,30.3836,-88.4364,0.0,19.6,2 
NERRS,ioos:station:NOAA.NERRS:gndbcwq:1,2013-12-06T05:00:00Z,30.3836,-88.4364,0.0,19.3,2 
NERRS,ioos:station:NOAA.NERRS:gndbcwq:1,2013-12-06T06:00:00Z,30.3836,-88.4364,0.0,19.1,2 
NERRS,ioos:station:NOAA.NERRS:gndbcwq:1,2013-12-06T07:00:00Z,30.3836,-88.4364,0.0,19.4,2 
NERRS,ioos:station:NOAA.NERRS:gndbcwq:1,2013-12-06T08:00:00Z,30.3836,-88.4364,0.0,19.4,2 
NERRS,ioos:station:NOAA.NERRS:gndbcwq:1,2013-12-06T09:00:00Z,30.3836,-88.4364,0.0,19.6,2 
NERRS,ioos:station:NOAA.NERRS:gndbcwq:1,2013-12-06T10:00:00Z,30.3836,-88.4364,0.0,19.7,2 
NERRS,ioos:station:NOAA.NERRS:gndbcwq:1,2013-12-06T11:00:00Z,30.3836,-88.4364,0.0,19.9,2 
NERRS,ioos:station:NOAA.NERRS:gndbcwq:1,2013-12-06T12:00:00Z,30.3836,-88.4364,0.0,20.0,2 
NERRS,ioos:station:NOAA.NERRS:gndbcwq:1,2013-12-06T13:00:00Z,30.3836,-88.4364,0.0,20.1,2 
NERRS,ioos:station:NOAA.NERRS:gndbcwq:1,2013-12-06T14:00:00Z,30.3836,-88.4364,0.0,20.3,2 
NERRS,ioos:station:NOAA.NERRS:gndbcwq:1,2013-12-06T15:00:00Z,30.3836,-88.4364,0.0,20.7,2 
NERRS,ioos:station:NOAA.NERRS:gndbcwq:1,2013-12-06T16:00:00Z,30.3836,-88.4364,0.0,20.9,2 
NERRS,ioos:station:NOAA.NERRS:gndbcwq:1,2013-12-06T17:00:00Z,30.3836,-88.4364,0.0,21.5,2 
NERRS,ioos:station:NOAA.NERRS:gndbcwq:1,2013-12-06T18:00:00Z,30.3836,-88.4364,0.0,21.8,2 
NERRS,ioos:station:NOAA.NERRS:gndbcwq:1,2013-12-06T19:00:00Z,30.3836,-88.4364,0.0,22.8,2 
NERRS,ioos:station:NOAA.NERRS:gndbcwq:1,2013-12-06T20:00:00Z,30.3836,-88.4364,0.0,22.6,2 
NERRS,ioos:station:NOAA.NERRS:gndbcwq:1,2013-12-06T21:00:00Z,30.3836,-88.4364,0.0,22.5,2 
NERRS,ioos:station:NOAA.NERRS:gndbcwq:1,2013-12-06T22:00:00Z,30.3836,-88.4364,0.0,22.2,2 
NERRS,ioos:station:NOAA.NERRS:gndbcwq:1,2013-12-06T23:00:00Z,30.3836,-88.4364,0.0,22.2,2 
NERRS,ioos:station:NOAA.NERRS:gndbcwq:1,2013-12-07T00:00:00Z,30.3836,-88.4364,0.0,22.2,2 
NERRS,ioos:station:NOAA.NERRS:gndbcwq:1,2013-12-07T01:00:00Z,30.3836,-88.4364,0.0,22.1,2 
NERRS,ioos:station:NOAA.NERRS:gndbcwq:1,2013-12-07T02:00:00Z,30.3836,-88.4364,0.0,22.0,2 
NERRS,ioos:station:NOAA.NERRS:gndbcwq:1,2013-12-07T03:00:00Z,30.3836,-88.4364,0.0,21.6,2 
NERRS,ioos:station:NOAA.NERRS:gndbcwq:1,2013-12-07T04:00:00Z,30.3836,-88.4364,0.0,21.4,2 
NERRS,ioos:station:NOAA.NERRS:gndbcwq:1,2013-12-07T05:00:00Z,30.3836,-88.4364,0.0,21.1,2 
NERRS,ioos:station:NOAA.NERRS:gndbcwq:1,2013-12-07T06:00:00Z,30.3836,-88.4364,0.0,20.9,2 
NERRS,ioos:station:NOAA.NERRS:gndbcwq:1,2013-12-07T07:00:00Z,30.3836,-88.4364,0.0,20.8,2 
NERRS,ioos:station:NOAA.NERRS:gndbcwq:1,2013-12-07T08:00:00Z,30.3836,-88.4364,0.0,20.8,2 
NERRS,ioos:station:NOAA.NERRS:gndbcwq:1,2013-12-07T09:00:00Z,30.3836,-88.4364,0.0,19.9,2 
NERRS,ioos:station:NOAA.NERRS:gndbcwq:1,2013-12-07T10:00:00Z,30.3836,-88.4364,0.0,20.1,2 
NERRS,ioos:station:NOAA.NERRS:gndbcwq:1,2013-12-07T11:00:00Z,30.3836,-88.4364,0.0,19.6,2 
NERRS,ioos:station:NOAA.NERRS:gndbcwq:1,2013-12-07T12:00:00Z,30.3836,-88.4364,0.0,19.5,2 
NERRS,ioos:station:NOAA.NERRS:gndbcwq:1,2013-12-07T13:00:00Z,30.3836,-88.4364,0.0,18.8,2 
NERRS,ioos:station:NOAA.NERRS:gndbcwq:1,2013-12-07T14:00:00Z,30.3836,-88.4364,0.0,18.9,2 
NERRS,ioos:station:NOAA.NERRS:gndbcwq:1,2013-12-07T15:00:00Z,30.3836,-88.4364,0.0,18.3,2 
NERRS,ioos:station:NOAA.NERRS:gndbcwq:1,2013-12-07T16:00:00Z,30.3836,-88.4364,0.0,18.4,2 
NERRS,ioos:station:NOAA.NERRS:gndbcwq:1,2013-12-07T17:00:00Z,30.3836,-88.4364,0.0,18.0,2 
NERRS,ioos:station:NOAA.NERRS:gndbcwq:1,2013-12-07T18:00:00Z,30.3836,-88.4364,0.0,17.8,2 
NERRS,ioos:station:NOAA.NERRS:gndbcwq:1,2013-12-07T19:00:00Z,30.3836,-88.4364,0.0,17.5,2 
NERRS,ioos:station:NOAA.NERRS:gndbcwq:1,2013-12-07T20:00:00Z,30.3836,-88.4364,0.0,17.1,2 
NERRS,ioos:station:NOAA.NERRS:gndbcwq:1,2013-12-07T21:00:00Z,30.3836,-88.4364,0.0,17.0,2 
NERRS,ioos:station:NOAA.NERRS:gndbcwq:1,2013-12-07T22:00:00Z,30.3836,-88.4364,0.0,16.9,2 
NERRS,ioos:station:NOAA.NERRS:gndbcwq:1,2013-12-07T23:00:00Z,30.3836,-88.4364,0.0,16.7,2 
NERRS,ioos:station:NOAA.NERRS:gndbcwq:1,2013-12-08T00:00:00Z,30.3836,-88.4364,0.0,16.4,2 
NERRS,ioos:station:NOAA.NERRS:gndbcwq:1,2013-12-08T01:00:00Z,30.3836,-88.4364,0.0,16.3,2 
NERRS,ioos:station:NOAA.NERRS:gndbcwq:1,2013-12-08T02:00:00Z,30.3836,-88.4364,0.0,16.0,2 
NERRS,ioos:station:NOAA.NERRS:gndbcwq:1,2013-12-08T03:00:00Z,30.3836,-88.4364,0.0,16.0,2 
NERRS,ioos:station:NOAA.NERRS:gndbcwq:1,2013-12-08T04:00:00Z,30.3836,-88.4364,0.0,15.5,2 
NERRS,ioos:station:NOAA.NERRS:gndbcwq:1,2013-12-08T05:00:00Z,30.3836,-88.4364,0.0,15.4,2 
NERRS,ioos:station:NOAA.NERRS:gndbcwq:1,2013-12-08T06:00:00Z,30.3836,-88.4364,0.0,15.2,2 
NERRS,ioos:station:NOAA.NERRS:gndbcwq:1,2013-12-08T07:00:00Z,30.3836,-88.4364,0.0,14.7,2 
NERRS,ioos:station:NOAA.NERRS:gndbcwq:1,2013-12-08T08:00:00Z,30.3836,-88.4364,0.0,14.6,2 
NERRS,ioos:station:NOAA.NERRS:gndbcwq:1,2013-12-08T09:00:00Z,30.3836,-88.4364,0.0,14.4,2 
NERRS,ioos:station:NOAA.NERRS:gndbcwq:1,2013-12-08T10:00:00Z,30.3836,-88.4364,0.0,14.4,2 
NERRS,ioos:station:NOAA.NERRS:gndbcwq:1,2013-12-08T11:00:00Z,30.3836,-88.4364,0.0,15.1,2 
NERRS,ioos:station:NOAA.NERRS:gndbcwq:1,2013-12-08T12:00:00Z,30.3836,-88.4364,0.0,14.0,2 
NERRS,ioos:station:NOAA.NERRS:gndbcwq:1,2013-12-08T13:00:00Z,30.3836,-88.4364,0.0,14.0,2 
NERRS,ioos:station:NOAA.NERRS:gndbcwq:1,2013-12-08T14:00:00Z,30.3836,-88.4364,0.0,14.1,2 
NERRS,ioos:station:NOAA.NERRS:gndbcwq:1,2013-12-08T15:00:00Z,30.3836,-88.4364,0.0,14.5,2 
NERRS,ioos:station:NOAA.NERRS:gndbcwq:1,2013-12-08T16:00:00Z,30.3836,-88.4364,0.0,15.0,2 
NERRS,ioos:station:NOAA.NERRS:gndbcwq:1,2013-12-08T17:00:00Z,30.3836,-88.4364,0.0,15.2,2 
NERRS,ioos:station:NOAA.NERRS:gndbcwq:1,2013-12-08T19:00:00Z,30.3836,-88.4364,0.0,15.3,2 
NERRS,ioos:station:NOAA.NERRS:gndbcwq:1,2013-12-08T20:00:00Z,30.3836,-88.4364,0.0,14.8,2 
NERRS,ioos:station:NOAA.NERRS:gndbcwq:1,2013-12-08T21:00:00Z,30.3836,-88.4364,0.0,15.3,2 
NERRS,ioos:station:NOAA.NERRS:gndbcwq:1,2013-12-08T23:00:00Z,30.3836,-88.4364,0.0,15.2,2 
NERRS,ioos:station:NOAA.NERRS:gndbcwq:1,2013-12-09T00:00:00Z,30.3836,-88.4364,0.0,15.0,2 
NERRS,ioos:station:NOAA.NERRS:gndbcwq:1,2013-12-09T01:00:00Z,30.3836,-88.4364,0.0,15.0,2 
NERRS,ioos:station:NOAA.NERRS:gndbcwq:1,2013-12-09T02:00:00Z,30.3836,-88.4364,0.0,15.4,2 
NERRS,ioos:station:NOAA.NERRS:gndbcwq:1,2013-12-09T04:00:00Z,30.3836,-88.4364,0.0,15.4,2 
NERRS,ioos:station:NOAA.NERRS:gndbcwq:1,2013-12-09T05:00:00Z,30.3836,-88.4364,0.0,15.4,2 
NERRS,ioos:station:NOAA.NERRS:gndbcwq:1,2013-12-09T06:00:00Z,30.3836,-88.4364,0.0,15.3,2 
NERRS,ioos:station:NOAA.NERRS:gndbcwq:1,2013-12-09T07:00:00Z,30.3836,-88.4364,0.0,15.9,2 
NERRS,ioos:station:NOAA.NERRS:gndbcwq:1,2013-12-09T08:00:00Z,30.3836,-88.4364,0.0,16.1,2 
NERRS,ioos:station:NOAA.NERRS:gndbcwq:1,2013-12-09T09:00:00Z,30.3836,-88.4364,0.0,15.9,2 
NERRS,ioos:station:NOAA.NERRS:gndbcwq:1,2013-12-09T10:00:00Z,30.3836,-88.4364,0.0,15.9,2 
NERRS,ioos:station:NOAA.NERRS:gndbcwq:1,2013-12-09T11:00:00Z,30.3836,-88.4364,0.0,16.4,2 
NERRS,ioos:station:NOAA.NERRS:gndbcwq:1,2013-12-09T12:00:00Z,30.3836,-88.4364,0.0,16.5,2 
NERRS,ioos:station:NOAA.NERRS:gndbcwq:1,2013-12-09T13:00:00Z,30.3836,-88.4364,0.0,16.3,2 
NERRS,ioos:station:NOAA.NERRS:gndbcwq:1,2013-12-09T14:00:00Z,30.3836,-88.4364,0.0,16.6,2 
NERRS,ioos:station:NOAA.NERRS:gndbcwq:1,2013-12-09T15:00:00Z,30.3836,-88.4364,0.0,16.8,2 
NERRS,ioos:station:NOAA.NERRS:gndbcwq:1,2013-12-09T17:00:00Z,30.3836,-88.4364,0.0,16.6,2 
NERRS,ioos:station:NOAA.NERRS:gndbcwq:1,2013-12-09T19:00:00Z,30.3836,-88.4364,0.0,16.7,2 
NERRS,ioos:station:NOAA.NERRS:gndbcwq:1,2013-12-09T20:00:00Z,30.3836,-88.4364,0.0,17.2,2 
NERRS,ioos:station:NOAA.NERRS:gndbcwq:1,2013-12-09T22:00:00Z,30.3836,-88.4364,0.0,16.2,2 
NERRS,ioos:station:NOAA.NERRS:gndbcwq:1,2013-12-10T00:00:00Z,30.3836,-88.4364,0.0,17.7,2 
NERRS,ioos:station:NOAA.NERRS:gndbcwq:1,2013-12-10T01:00:00Z,30.3836,-88.4364,0.0,17.8,2 
NERRS,ioos:station:NOAA.NERRS:gndbcwq:1,2013-12-10T02:00:00Z,30.3836,-88.4364,0.0,17.3,2 
NERRS,ioos:station:NOAA.NERRS:gndbcwq:1,2013-12-10T05:00:00Z,30.3836,-88.4364,0.0,18.4,2 
NERRS,ioos:station:NOAA.NERRS:gndbcwq:1,2013-12-10T06:00:00Z,30.3836,-88.4364,0.0,15.9,2 
NERRS,ioos:station:NOAA.NERRS:gndbcwq:1,2013-12-10T07:00:00Z,30.3836,-88.4364,0.0,16.5,2 
NERRS,ioos:station:NOAA.NERRS:gndbcwq:1,2013-12-10T11:00:00Z,30.3836,-88.4364,0.0,17.2,2 
NERRS,ioos:station:NOAA.NERRS:gndbcwq:1,2013-12-10T12:00:00Z,30.3836,-88.4364,0.0,16.8,2 
NERRS,ioos:station:NOAA.NERRS:gndbcwq:1,2013-12-10T13:00:00Z,30.3836,-88.4364,0.0,16.6,2 
NERRS,ioos:station:NOAA.NERRS:gndbcwq:1,2013-12-10T17:00:00Z,30.3836,-88.4364,0.0,15.8,2 
NERRS,ioos:station:NOAA.NERRS:gndbcwq:1,2013-12-10T22:00:00Z,30.3836,-88.4364,0.0,15.8,2 
NERRS,ioos:station:NOAA.NERRS:gndbcwq:1,2013-12-11T02:00:00Z,30.3836,-88.4364,0.0,15.0,2 
NERRS,ioos:station:NOAA.NERRS:gndbcwq:1,2013-12-11T05:00:00Z,30.3836,-88.4364,0.0,13.8,2 
NERRS,ioos:station:NOAA.NERRS:gndbcwq:1,2013-12-11T06:00:00Z,30.3836,-88.4364,0.0,14.0,2 
NERRS,ioos:station:NOAA.NERRS:gndbcwq:1,2013-12-11T07:00:00Z,30.3836,-88.4364,0.0,14.1,2 
NERRS,ioos:station:NOAA.NERRS:gndbcwq:1,2013-12-11T12:00:00Z,30.3836,-88.4364,0.0,12.3,2 
NERRS,ioos:station:NOAA.NERRS:gndbcwq:1,2013-12-11T13:00:00Z,30.3836,-88.4364,0.0,13.4,2 
NERRS,ioos:station:NOAA.NERRS:gndbcwq:1,2013-12-11T16:00:00Z,30.3836,-88.4364,0.0,13.6,2 
NERRS,ioos:station:NOAA.NERRS:gndbcwq:1,2013-12-11T22:00:00Z,30.3836,-88.4364,0.0,14.1,2 
NERRS,ioos:station:NOAA.NERRS:gndbcwq:1,2013-12-11T23:00:00Z,30.3836,-88.4364,0.0,14.5,2 
NERRS,ioos:station:NOAA.NERRS:gndbcwq:1,2013-12-12T01:00:00Z,30.3836,-88.4364,0.0,14.4,2 
NERRS,ioos:station:NOAA.NERRS:gndbcwq:1,2013-12-12T05:00:00Z,30.3836,-88.4364,0.0,14.3,2 
NERRS,ioos:station:NOAA.NERRS:gndbcwq:1,2013-12-12T09:00:00Z,30.3836,-88.4364,0.0,14.0,2 
NERRS,ioos:station:NOAA.NERRS:gndbcwq:1,2013-12-12T15:00:00Z,30.3836,-88.4364,0.0,12.5,2 
NERRS,ioos:station:NOAA.NERRS:gndbcwq:1,2013-12-12T16:00:00Z,30.3836,-88.4364,0.0,12.6,2 
NERRS,ioos:station:NOAA.NERRS:gndbcwq:1,2013-12-12T19:00:00Z,30.3836,-88.4364,0.0,13.6,2 
NERRS,ioos:station:NOAA.NERRS:gndbcwq:1,2013-12-12T21:00:00Z,30.3836,-88.4364,0.0,13.9,2 
NERRS,ioos:station:NOAA.NERRS:gndbcwq:1,2013-12-13T00:00:00Z,30.3836,-88.4364,0.0,13.1,2 
NERRS,ioos:station:NOAA.NERRS:gndbcwq:1,2013-12-13T05:45:00Z,30.3836,-88.4364,0.0,11.7,2 
NERRS,ioos:station:NOAA.NERRS:gndbcwq:1,2013-12-13T07:00:00Z,30.3836,-88.4364,0.0,10.6,2 
NERRS,ioos:station:NOAA.NERRS:gndbcwq:1,2013-12-13T08:00:00Z,30.3836,-88.4364,0.0,11.5,2 
NERRS,ioos:station:NOAA.NERRS:gndbcwq:1,2013-12-13T09:00:00Z,30.3836,-88.4364,0.0,10.7,2 
NERRS,ioos:station:NOAA.NERRS:gndbcwq:1,2013-12-13T10:00:00Z,30.3836,-88.4364,0.0,10.7,2 
NERRS,ioos:station:NOAA.NERRS:gndbcwq:1,2013-12-13T11:00:00Z,30.3836,-88.4364,0.0,12.3,2 
NERRS,ioos:station:NOAA.NERRS:gndbcwq:1,2013-12-13T12:00:00Z,30.3836,-88.4364,0.0,12.0,2 
NERRS,ioos:station:NOAA.NERRS:gndbcwq:1,2013-12-13T13:00:00Z,30.3836,-88.4364,0.0,10.5,2 
NERRS,ioos:station:NOAA.NERRS:gndbcwq:1,2013-12-13T14:00:00Z,30.3836,-88.4364,0.0,11.8,2 
NERRS,ioos:station:NOAA.NERRS:gndbcwq:1,2013-12-13T15:00:00Z,30.3836,-88.4364,0.0,12.6,2 
NERRS,ioos:station:NOAA.NERRS:gndbcwq:1,2013-12-13T17:00:00Z,30.3836,-88.4364,0.0,11.8,2 
NERRS,ioos:station:NOAA.NERRS:gndbcwq:1,2013-12-13T18:00:00Z,30.3836,-88.4364,0.0,12.3,2 
NERRS,ioos:station:NOAA.NERRS:gndbcwq:1,2013-12-13T19:00:00Z,30.3836,-88.4364,0.0,12.6,2 
NERRS,ioos:station:NOAA.NERRS:gndbcwq:1,2013-12-13T20:00:00Z,30.3836,-88.4364,0.0,12.5,2 
NERRS,ioos:station:NOAA.NERRS:gndbcwq:1,2013-12-13T21:00:00Z,30.3836,-88.4364,0.0,12.2,2 
NERRS,ioos:station:NOAA.NERRS:gndbcwq:1,2013-12-13T22:00:00Z,30.3836,-88.4364,0.0,12.3,2 
NERRS,ioos:station:NOAA.NERRS:gndbcwq:1,2013-12-13T23:00:00Z,30.3836,-88.4364,0.0,12.3,2 
NERRS,ioos:station:NOAA.NERRS:gndbcwq:1,2013-12-14T00:00:00Z,30.3836,-88.4364,0.0,12.1,2 
NERRS,ioos:station:NOAA.NERRS:gndbcwq:1,2013-12-14T01:00:00Z,30.3836,-88.4364,0.0,12.0,2 
NERRS,ioos:station:NOAA.NERRS:gndbcwq:1,2013-12-14T02:00:00Z,30.3836,-88.4364,0.0,11.9,2 
NERRS,ioos:station:NOAA.NERRS:gndbcwq:1,2013-12-14T03:00:00Z,30.3836,-88.4364,0.0,12.1,2 
NERRS,ioos:station:NOAA.NERRS:gndbcwq:1,2013-12-14T04:00:00Z,30.3836,-88.4364,0.0,12.1,2 
NERRS,ioos:station:NOAA.NERRS:gndbcwq:1,2013-12-14T04:45:00Z,30.3836,-88.4364,0.0,12.1,2 
NERRS,ioos:station:NOAA.NERRS:gndbcwq:1,2013-12-14T06:00:00Z,30.3836,-88.4364,0.0,12.4,2 
NERRS,ioos:station:NOAA.NERRS:gndbcwq:1,2013-12-14T07:00:00Z,30.3836,-88.4364,0.0,12.8,2 
NERRS,ioos:station:NOAA.NERRS:gndbcwq:1,2013-12-14T08:00:00Z,30.3836,-88.4364,0.0,12.9,2 
NERRS,ioos:station:NOAA.NERRS:gndbcwq:1,2013-12-14T09:00:00Z,30.3836,-88.4364,0.0,13.0,2 
NERRS,ioos:station:NOAA.NERRS:gndbcwq:1,2013-12-14T10:00:00Z,30.3836,-88.4364,0.0,13.2,2 
NERRS,ioos:station:NOAA.NERRS:gndbcwq:1,2013-12-14T11:00:00Z,30.3836,-88.4364,0.0,13.0,2 
NERRS,ioos:station:NOAA.NERRS:gndbcwq:1,2013-12-14T12:00:00Z,30.3836,-88.4364,0.0,12.9,2 
NERRS,ioos:station:NOAA.NERRS:gndbcwq:1,2013-12-14T13:00:00Z,30.3836,-88.4364,0.0,12.9,2 
NERRS,ioos:station:NOAA.NERRS:gndbcwq:1,2013-12-14T14:00:00Z,30.3836,-88.4364,0.0,12.9,2 
NERRS,ioos:station:NOAA.NERRS:gndbcwq:1,2013-12-14T15:00:00Z,30.3836,-88.4364,0.0,13.1,2 
NERRS,ioos:station:NOAA.NERRS:gndbcwq:1,2013-12-14T16:00:00Z,30.3836,-88.4364,0.0,13.3,2 
NERRS,ioos:station:NOAA.NERRS:gndbcwq:1,2013-12-14T17:00:00Z,30.3836,-88.4364,0.0,13.5,2 
NERRS,ioos:station:NOAA.NERRS:gndbcwq:1,2013-12-14T18:00:00Z,30.3836,-88.4364,0.0,14.1,2 
NERRS,ioos:station:NOAA.NERRS:gndbcwq:1,2013-12-14T19:00:00Z,30.3836,-88.4364,0.0,14.8,2 
NERRS,ioos:station:NOAA.NERRS:gndbcwq:1,2013-12-14T20:00:00Z,30.3836,-88.4364,0.0,14.9,2 
NERRS,ioos:station:NOAA.NERRS:gndbcwq:1,2013-12-14T21:00:00Z,30.3836,-88.4364,0.0,14.6,2 
NERRS,ioos:station:NOAA.NERRS:gndbcwq:1,2013-12-14T22:00:00Z,30.3836,-88.4364,0.0,14.2,2 
NERRS,ioos:station:NOAA.NERRS:gndbcwq:1,2013-12-14T23:00:00Z,30.3836,-88.4364,0.0,13.9,2 
NERRS,ioos:station:NOAA.NERRS:gndbcwq:1,2013-12-15T00:00:00Z,30.3836,-88.4364,0.0,13.8,2 
NERRS,ioos:station:NOAA.NERRS:gndbcwq:1,2013-12-15T01:00:00Z,30.3836,-88.4364,0.0,13.7,2 
NERRS,ioos:station:NOAA.NERRS:gndbcwq:1,2013-12-15T02:00:00Z,30.3836,-88.4364,0.0,13.7,2 
NERRS,ioos:station:NOAA.NERRS:gndbcwq:1,2013-12-15T03:00:00Z,30.3836,-88.4364,0.0,13.8,2 
NERRS,ioos:station:NOAA.NERRS:gndbcwq:1,2013-12-15T04:00:00Z,30.3836,-88.4364,0.0,13.8,2 
NERRS,ioos:station:NOAA.NERRS:gndbcwq:1,2013-12-15T05:00:00Z,30.3836,-88.4364,0.0,14.0,2 
NERRS,ioos:station:NOAA.NERRS:gndbcwq:1,2013-12-15T06:00:00Z,30.3836,-88.4364,0.0,14.2,2 
NERRS,ioos:station:NOAA.NERRS:gndbcwq:1,2013-12-15T07:00:00Z,30.3836,-88.4364,0.0,14.2,2 
NERRS,ioos:station:NOAA.NERRS:gndbcwq:1,2013-12-15T08:00:00Z,30.3836,-88.4364,0.0,14.1,2 
NERRS,ioos:station:NOAA.NERRS:gndbcwq:1,2013-12-15T09:00:00Z,30.3836,-88.4364,0.0,13.9,2 
NERRS,ioos:station:NOAA.NERRS:gndbcwq:1,2013-12-15T10:00:00Z,30.3836,-88.4364,0.0,13.8,2 
NERRS,ioos:station:NOAA.NERRS:gndbcwq:1,2013-12-15T11:00:00Z,30.3836,-88.4364,0.0,13.8,2 
NERRS,ioos:station:NOAA.NERRS:gndbcwq:1,2013-12-15T12:00:00Z,30.3836,-88.4364,0.0,13.5,2 
NERRS,ioos:station:NOAA.NERRS:gndbcwq:1,2013-12-15T13:00:00Z,30.3836,-88.4364,0.0,13.5,2 
NERRS,ioos:station:NOAA.NERRS:gndbcwq:1,2013-12-15T14:00:00Z,30.3836,-88.4364,0.0,13.2,2 
NERRS,ioos:station:NOAA.NERRS:gndbcwq:1,2013-12-15T15:00:00Z,30.3836,-88.4364,0.0,12.8,2 
NERRS,ioos:station:NOAA.NERRS:gndbcwq:1,2013-12-15T16:00:00Z,30.3836,-88.4364,0.0,12.8,2 
NERRS,ioos:station:NOAA.NERRS:gndbcwq:1,2013-12-15T17:00:00Z,30.3836,-88.4364,0.0,12.9,2 
NERRS,ioos:station:NOAA.NERRS:gndbcwq:1,2013-12-15T18:00:00Z,30.3836,-88.4364,0.0,13.0,2 
NERRS,ioos:station:NOAA.NERRS:gndbcwq:1,2013-12-15T19:00:00Z,30.3836,-88.4364,0.0,13.0,2 
NERRS,ioos:station:NOAA.NERRS:gndbcwq:1,2013-12-15T20:00:00Z,30.3836,-88.4364,0.0,13.1,2 
NERRS,ioos:station:NOAA.NERRS:gndbcwq:1,2013-12-15T21:00:00Z,30.3836,-88.4364,0.0,13.1,2 
NERRS,ioos:station:NOAA.NERRS:gndbcwq:1,2013-12-15T22:00:00Z,30.3836,-88.4364,0.0,13.0,2 
NERRS,ioos:station:NOAA.NERRS:gndbcwq:1,2013-12-15T23:00:00Z,30.3836,-88.4364,0.0,12.5,2 
NERRS,ioos:station:NOAA.NERRS:gndbcwq:1,2013-12-16T00:00:00Z,30.3836,-88.4364,0.0,12.3,2 
NERRS,ioos:station:NOAA.NERRS:gndbcwq:1,2013-12-16T01:00:00Z,30.3836,-88.4364,0.0,12.3,2 
NERRS,ioos:station:NOAA.NERRS:gndbcwq:1,2013-12-16T02:00:00Z,30.3836,-88.4364,0.0,12.1,2 
NERRS,ioos:station:NOAA.NERRS:gndbcwq:1,2013-12-16T03:00:00Z,30.3836,-88.4364,0.0,12.1,2 
NERRS,ioos:station:NOAA.NERRS:gndbcwq:1,2013-12-16T04:00:00Z,30.3836,-88.4364,0.0,11.7,2 
NERRS,ioos:station:NOAA.NERRS:gndbcwq:1,2013-12-16T05:00:00Z,30.3836,-88.4364,0.0,10.8,2 
NERRS,ioos:station:NOAA.NERRS:gndbcwq:1,2013-12-16T06:00:00Z,30.3836,-88.4364,0.0,11.0,2 
NERRS,ioos:station:NOAA.NERRS:gndbcwq:1,2013-12-16T07:00:00Z,30.3836,-88.4364,0.0,10.8,2 
NERRS,ioos:station:NOAA.NERRS:gndbcwq:1,2013-12-16T08:00:00Z,30.3836,-88.4364,0.0,10.6,2 
NERRS,ioos:station:NOAA.NERRS:gndbcwq:1,2013-12-16T09:00:00Z,30.3836,-88.4364,0.0,10.7,2 
NERRS,ioos:station:NOAA.NERRS:gndbcwq:1,2013-12-16T10:00:00Z,30.3836,-88.4364,0.0,10.7,2 
NERRS,ioos:station:NOAA.NERRS:gndbcwq:1,2013-12-16T11:00:00Z,30.3836,-88.4364,0.0,10.8,2 
NERRS,ioos:station:NOAA.NERRS:gndbcwq:1,2013-12-16T12:00:00Z,30.3836,-88.4364,0.0,10.5,2 
NERRS,ioos:station:NOAA.NERRS:gndbcwq:1,2013-12-16T13:00:00Z,30.3836,-88.4364,0.0,10.2,2 
NERRS,ioos:station:NOAA.NERRS:gndbcwq:1,2013-12-16T14:00:00Z,30.3836,-88.4364,0.0,9.4,2 
NERRS,ioos:station:NOAA.NERRS:gndbcwq:1,2013-12-16T15:00:00Z,30.3836,-88.4364,0.0,10.5,2 
NERRS,ioos:station:NOAA.NERRS:gndbcwq:1,2013-12-16T16:00:00Z,30.3836,-88.4364,0.0,11.6,2 
NERRS,ioos:station:NOAA.NERRS:gndbcwq:1,2013-12-16T17:00:00Z,30.3836,-88.4364,0.0,11.4,2 
NERRS,ioos:station:NOAA.NERRS:gndbcwq:1,2013-12-16T18:00:00Z,30.3836,-88.4364,0.0,12.0,2 
NERRS,ioos:station:NOAA.NERRS:gndbcwq:1,2013-12-16T19:00:00Z,30.3836,-88.4364,0.0,12.5,2 
NERRS,ioos:station:NOAA.NERRS:gndbcwq:1,2013-12-16T20:00:00Z,30.3836,-88.4364,0.0,13.2,2 
NERRS,ioos:station:NOAA.NERRS:gndbcwq:1,2013-12-16T21:00:00Z,30.3836,-88.4364,0.0,13.2,2 
NERRS,ioos:station:NOAA.NERRS:gndbcwq:1,2013-12-16T22:00:00Z,30.3836,-88.4364,0.0,12.7,2 
NERRS,ioos:station:NOAA.NERRS:gndbcwq:1,2013-12-16T23:00:00Z,30.3836,-88.4364,0.0,12.4,2 
NERRS,ioos:station:NOAA.NERRS:gndbcwq:1,2013-12-17T00:00:00Z,30.3836,-88.4364,0.0,12.1,2 
NERRS,ioos:station:NOAA.NERRS:gndbcwq:1,2013-12-17T01:00:00Z,30.3836,-88.4364,0.0,11.8,2 
NERRS,ioos:station:NOAA.NERRS:gndbcwq:1,2013-12-17T02:00:00Z,30.3836,-88.4364,0.0,11.6,2 